TimeEST,TemperatureF,Dew PointF,Humidity,Sea Level PressureIn,VisibilityMPH,Wind Direction,Wind SpeedMPH,Gust SpeedMPH,PrecipitationIn,Events,Conditions,WindDirDegrees,DateUTC
12:15 AM,41.0,41.0,100,29.82,10.0,SW,8.1,-,N/A,Rain,Rain,230,2014-01-14 05:15:00
12:35 AM,41.0,41.0,100,29.81,10.0,SW,6.9,-,N/A,,Overcast,230,2014-01-14 05:35:00
12:55 AM,41.0,41.0,100,29.81,10.0,SSW,6.9,-,N/A,,Overcast,210,2014-01-14 05:55:00
1:15 AM,41.0,41.0,100,29.79,10.0,SW,6.9,-,N/A,,Overcast,220,2014-01-14 06:15:00
1:35 AM,41.0,41.0,100,29.79,7.0,SW,5.8,-,N/A,,Overcast,230,2014-01-14 06:35:00
1:55 AM,41.0,41.0,100,29.78,10.0,SSW,5.8,-,N/A,,Overcast,200,2014-01-14 06:55:00
2:15 AM,41.0,41.0,100,29.78,7.0,SSW,5.8,-,N/A,,Overcast,200,2014-01-14 07:15:00
2:35 AM,41.0,41.0,100,29.78,5.0,SSW,4.6,-,N/A,,Overcast,210,2014-01-14 07:35:00
2:55 AM,41.0,41.0,100,29.79,7.0,SSW,4.6,-,N/A,,Overcast,200,2014-01-14 07:55:00
3:15 AM,41.0,41.0,100,29.78,4.0,SSW,4.6,-,N/A,,Overcast,200,2014-01-14 08:15:00
3:35 AM,41.0,41.0,100,29.78,5.0,SW,4.6,-,N/A,,Light Drizzle,220,2014-01-14 08:35:00
3:55 AM,41.0,41.0,100,29.78,2.5,SW,4.6,-,N/A,Rain,Light Rain,220,2014-01-14 08:55:00
4:15 AM,41.0,41.0,100,29.78,5.0,SW,5.8,-,N/A,Rain,Light Rain,220,2014-01-14 09:15:00
4:35 AM,41.0,41.0,100,29.77,7.0,SW,5.8,-,N/A,,Overcast,220,2014-01-14 09:35:00
4:55 AM,41.0,41.0,100,29.79,7.0,WSW,4.6,-,N/A,Rain,Light Rain,240,2014-01-14 09:55:00
5:15 AM,41.0,41.0,100,29.79,7.0,West,5.8,-,0.01,Rain,Rain,260,2014-01-14 10:15:00
5:35 AM,41.0,41.0,100,29.79,7.0,WSW,5.8,-,0.02,Rain,Light Rain,250,2014-01-14 10:35:00
5:55 AM,41.0,41.0,100,29.79,10.0,WSW,8.1,-,0.02,,Overcast,250,2014-01-14 10:55:00
6:15 AM,41.0,41.0,100,29.79,7.0,West,10.4,-,0.01,Rain,Rain,280,2014-01-14 11:15:00
6:35 AM,41.0,41.0,100,29.79,10.0,NNW,3.5,-,0.02,Rain,Light Rain,330,2014-01-14 11:35:00
6:55 AM,41.0,41.0,100,29.82,10.0,WSW,8.1,-,0.02,Rain,Light Rain,250,2014-01-14 11:55:00
7:15 AM,41.0,41.0,100,29.82,7.0,WNW,6.9,-,0.03,Rain,Light Rain,290,2014-01-14 12:15:00
7:30 AM,41.0,41.0,100,29.81,7.0,NW,8.1,-,0.05,Rain,Light Rain,310,2014-01-14 12:30:00
7:55 AM,41.0,41.0,100,29.83,10.0,West,5.8,-,0.01,Rain,Light Rain,280,2014-01-14 12:55:00
8:15 AM,41.0,41.0,100,29.84,10.0,West,3.5,-,N/A,,Drizzle,260,2014-01-14 13:15:00
8:35 AM,41.0,41.0,100,29.84,10.0,West,4.6,-,N/A,,Overcast,270,2014-01-14 13:35:00
8:55 AM,41.0,41.0,100,29.85,10.0,West,6.9,-,0.01,,Overcast,270,2014-01-14 13:55:00
9:15 AM,41.0,41.0,100,29.87,10.0,SW,5.8,-,N/A,,Overcast,230,2014-01-14 14:15:00
9:35 AM,41.0,41.0,100,29.88,10.0,West,4.6,-,N/A,,Overcast,260,2014-01-14 14:35:00
9:55 AM,41.0,41.0,100,29.87,10.0,West,4.6,-,N/A,,Overcast,270,2014-01-14 14:55:00
10:15 AM,41.0,41.0,100,29.87,10.0,WSW,3.5,-,N/A,,Overcast,250,2014-01-14 15:15:00
10:35 AM,41.0,41.0,100,29.88,10.0,WSW,5.8,-,N/A,,Mostly Cloudy,240,2014-01-14 15:35:00
10:55 AM,42.8,41.0,93,29.87,10.0,West,5.8,-,N/A,,Scattered Clouds,270,2014-01-14 15:55:00
11:15 AM,42.8,37.4,81,29.87,10.0,West,6.9,-,N/A,,Scattered Clouds,270,2014-01-14 16:15:00
11:35 AM,44.6,37.4,76,29.87,10.0,West,6.9,-,N/A,,Scattered Clouds,280,2014-01-14 16:35:00
11:55 AM,42.8,33.8,70,29.86,10.0,WNW,6.9,-,N/A,,Mostly Cloudy,290,2014-01-14 16:55:00
12:15 PM,44.6,33.8,66,29.85,10.0,WSW,11.5,-,N/A,,Scattered Clouds,240,2014-01-14 17:15:00
12:35 PM,44.6,32.0,61,29.85,10.0,West,13.8,20.7,N/A,,Scattered Clouds,260,2014-01-14 17:35:00
12:55 PM,42.8,32.0,66,29.87,10.0,West,9.2,19.6,N/A,,Scattered Clouds,270,2014-01-14 17:55:00
1:15 PM,46.4,32.0,57,29.88,10.0,West,16.1,20.7,N/A,,Overcast,280,2014-01-14 18:15:00
1:35 PM,44.6,32.0,61,29.87,10.0,WSW,9.2,-,N/A,,Mostly Cloudy,240,2014-01-14 18:35:00
1:55 PM,46.4,32.0,57,29.85,10.0,WSW,10.4,-,N/A,,Mostly Cloudy,240,2014-01-14 18:55:00
2:15 PM,46.4,32.0,57,29.86,10.0,SW,12.7,-,N/A,,Clear,230,2014-01-14 19:15:00
2:35 PM,46.4,32.0,57,29.86,10.0,WSW,9.2,-,N/A,,Clear,250,2014-01-14 19:35:00
2:55 PM,48.2,32.0,54,29.86,10.0,West,10.4,-,N/A,,Clear,260,2014-01-14 19:55:00
3:15 PM,46.4,30.2,53,29.86,10.0,WSW,9.2,16.1,N/A,,Clear,240,2014-01-14 20:15:00
3:35 PM,48.2,32.0,54,29.86,10.0,SSW,9.2,-,N/A,,Clear,210,2014-01-14 20:35:00
3:55 PM,46.4,32.0,57,29.87,10.0,SW,8.1,16.1,N/A,,Clear,230,2014-01-14 20:55:00
4:15 PM,46.4,30.2,53,29.87,10.0,SW,8.1,-,N/A,,Clear,230,2014-01-14 21:15:00
4:35 PM,46.4,30.2,53,29.87,10.0,SW,10.4,-,N/A,,Clear,220,2014-01-14 21:35:00
4:55 PM,44.6,32.0,61,29.88,10.0,SW,9.2,-,N/A,,Clear,230,2014-01-14 21:55:00
5:15 PM,44.6,32.0,61,29.88,10.0,SW,8.1,-,N/A,,Clear,230,2014-01-14 22:15:00
5:35 PM,42.8,32.0,66,29.88,10.0,SW,9.2,-,N/A,,Clear,230,2014-01-14 22:35:00
5:55 PM,41.0,32.0,70,29.89,10.0,SSW,6.9,-,N/A,,Clear,210,2014-01-14 22:55:00
6:15 PM,41.0,30.2,65,29.89,10.0,SSW,6.9,-,N/A,,Clear,210,2014-01-14 23:15:00
6:35 PM,39.2,30.2,70,29.89,10.0,SSW,5.8,-,N/A,,Clear,200,2014-01-14 23:35:00
6:55 PM,39.2,30.2,70,29.90,10.0,SSW,9.2,-,N/A,,Clear,210,2014-01-14 23:55:00
7:15 PM,41.0,30.2,65,29.90,10.0,SSW,11.5,-,N/A,,Clear,200,2014-01-15 00:15:00
7:35 PM,41.0,30.2,65,29.90,10.0,SSW,9.2,-,N/A,,Clear,210,2014-01-15 00:35:00
7:55 PM,39.2,30.2,70,29.91,10.0,SSW,8.1,-,N/A,,Clear,200,2014-01-15 00:55:00
8:15 PM,39.2,30.2,70,29.91,10.0,South,6.9,-,N/A,,Clear,190,2014-01-15 01:15:00
8:35 PM,41.0,30.2,65,29.91,10.0,SSW,10.4,-,N/A,,Clear,200,2014-01-15 01:35:00
8:55 PM,41.0,32.0,70,29.91,10.0,South,8.1,-,N/A,,Clear,190,2014-01-15 01:55:00
9:15 PM,41.0,32.0,70,29.92,10.0,SSW,10.4,-,N/A,,Clear,200,2014-01-15 02:15:00
9:35 PM,41.0,32.0,70,29.92,10.0,SSW,8.1,-,N/A,,Clear,210,2014-01-15 02:35:00
9:55 PM,37.4,32.0,81,29.92,10.0,WSW,5.8,-,N/A,,Clear,240,2014-01-15 02:55:00
10:15 PM,37.4,32.0,81,29.92,10.0,SSW,9.2,-,N/A,,Clear,210,2014-01-15 03:15:00
10:35 PM,37.4,30.2,75,29.91,10.0,SSW,5.8,-,N/A,,Clear,210,2014-01-15 03:35:00
10:55 PM,37.4,30.2,75,29.91,10.0,SSW,4.6,-,N/A,,Clear,210,2014-01-15 03:55:00
11:15 PM,39.2,30.2,70,29.90,10.0,South,5.8,-,N/A,,Clear,190,2014-01-15 04:15:00
11:35 PM,37.4,30.2,75,29.89,10.0,South,8.1,-,N/A,,Clear,190,2014-01-15 04:35:00
11:55 PM,37.4,32.0,81,29.89,10.0,South,10.4,-,N/A,,Clear,190,2014-01-15 04:55:00